Regional Weather Roundup
Issued by NWS

Home | Current Version | Previous Version | Text Only | Print | Product List | Glossary Off
Versions: 1 2 3 4 5 6 7 8 9 10 11 12 13 14 15 16 17 18 19 20 21 22 23 24 25 26 27 28 29 30 31 32 33 34 35 36 37 38 39 40 41 42 43 44 45 46 47 48 49 50

000
ASUS45 KBOU 051710
RWRCO

WEATHER ROUNDUP FOR COLORADO
NATIONAL WEATHER SERVICE DENVER/BOULDER CO
1100 AM MDT SUN JUL 05 2015

NOTE: "FAIR" INDICATES FEW OR NO CLOUDS BELOW 12000 FEET WITH NO
SIGNIFICANT WEATHER AND/OR OBSTRUCTIONS TO VISIBILITY.

COZ001>005-013-030-031-051800-
...NORTHWEST COLORADO...

CITY           SKY/WX    TMP DP  RH WIND       PRES   REMARKS
CRAIG          CLOUDY    72  54  53 CALM      30.18F
HAYDEN         CLOUDY    70  48  46 W5        30.21S
MEEKER         LGT RAIN  67  55  65 SW10      30.20S
MOUNT WERNER   NOT AVBL
STEAMBOAT SPGS CLOUDY    68  52  55 W7        30.22S
WALDEN         MOSUNNY   70  48  46 SW6       30.25F
$$

COZ006>008-011-051800-
...WEST CENTRAL VALLEYS...

CITY           SKY/WX    TMP DP  RH WIND       PRES   REMARKS
GRAND JUNCTION CLOUDY    72  60  66 W3        30.12S
MONTROSE       CLOUDY    72  57  59 NW3       30.18F
EAGLE          CLOUDY    72  52  49 W5        30.20F
RIFLE          CLOUDY    71  57  61 NW6       30.13F
DELTA          CLOUDY    76  56  48 SW6       30.13F
NUCLA          CLOUDY    70  55  60 CALM      30.23S
$$

COZ017>023-064>068-051800-
...SOUTHWEST COLORADO...

CITY           SKY/WX    TMP DP  RH WIND       PRES   REMARKS
DURANGO        CLOUDY    66  57  72 CALM      30.24F
CORTEZ         MOSUNNY   74  56  53 CALM      30.19F
PAGOSA SPRINGS CLOUDY    68  50  51 SW5       30.30F
TELLURIDE      CLOUDY    58  51  77 CALM      30.40R
WOLF CREEK PAS NOT AVBL
$$

COZ009-010-012-014-032>034-037-058>063-051800-
...CENTRAL COLORADO...

CITY           SKY/WX    TMP DP  RH WIND       PRES   REMARKS
ASPEN          CLOUDY    68  51  54 NE5       30.25F
BUENA VISTA    PTSUNNY   71  45  39 SE5       30.24F
COPPER MTN     PTSUNNY   55  43  62 W14       30.56S
BERTHOUD PASS  FAIR      48  37  66 MISG      30.60S
COTTONWOOD PAS NOT AVBL
GUNNISON       PTSUNNY   68  48  49 SW6       30.29F
KREMMLING      CLOUDY    73  45  35 CALM      30.24F
LEADVILLE      PTSUNNY   65  44  46 VRB7G18   30.37F
MONARCH PASS   PTSUNNY   54  43  66 W12G24    30.65S
SALIDA         PTSUNNY   78  46  31 S9        30.27S
SUNLIGHT       CLOUDY    55  50  82 CALM      30.50S
WILKERSON PASS PTSUNNY   59  41  51 CALM      30.52R
$$

COZ069>075-051800-
...SAN LUIS VALLEY/SANGRE DE CRISTO MOUNTAINS...

CITY           SKY/WX    TMP DP  RH WIND       PRES   REMARKS
ALAMOSA        MOSUNNY   71  47  42 CALM      30.24F
LA VETA PASS   MOSUNNY   59  45  58 MISG      30.41S
SAGUACHE       MOSUNNY   70  50  49 S6        30.27F
$$

COZ035-036-038>040-051800-
...NORTHERN COLORADO FRONT RANGE...

CITY           SKY/WX    TMP DP  RH WIND       PRES   REMARKS
DENVER INTL AP PTSUNNY   88  46  23 N5        29.99S
DMNS CITY PARK   N/A     88  46  23 S1G9      29.98S
AURORA         PTSUNNY   85  49  28 N3        30.02S
FRONT RANGE AP PTSUNNY   86  46  25 MISG      30.01S
ERIE MUNI ARPT MOSUNNY   89  44  20 S6        29.96S
BOULDER MUN AP MOSUNNY   88  46  23 SE5       29.96F
CENTENNIAL     PTSUNNY   82  45  27 CALM      30.03S
BROOMFIELD     MOSUNNY   86  48  26 CALM      30.00
FORT COLLINS   SUNNY     84  57  39 E6        29.96F
LONGMONT       SUNNY     92  49  23 CALM      29.96F
$$

COZ041-046-047-076>085-087-088-051800-
...PIKES PEAK/PALMER DIVIDE AND SOUTHERN FOOTHILLS...

CITY           SKY/WX    TMP DP  RH WIND       PRES   REMARKS
COLO. SPRINGS  PTSUNNY   83  50  31 VRB6      30.06S
A. F. ACADEMY  MOSUNNY   81  49  31 VRB2      30.07F
ELLICOTT       MOSUNNY  N/A N/A N/A SW7       30.05S
FALCON         MOSUNNY   82  42  24 W3        30.13R
FORT CARSON    MOSUNNY   81  53  38 S3        30.04R
LIMON          SUNNY     84  56  38 SE7       30.00S
MONUMENT HILL  MOSUNNY   77  48  36 NW5       30.14R
TRINIDAD       MOSUNNY   85  50  29 VRB5      30.05F
$$

COZ042>045-048>051-090-091-051800-
...NORTHEAST COLORADO...

CITY           SKY/WX    TMP DP  RH WIND       PRES   REMARKS
GREELEY ARPT   SUNNY     90  54  29 S5        29.94F
AKRON          MOSUNNY   88  53  30 SW12      29.94S
BURLINGTON     SUNNY     91  53  27 SW13      29.92S
WRAY           SUNNY     97  49  19 W9        29.86S
STERLING       MOSUNNY   88  61  40 S5          N/A
HOLYOKE        SUNNY     95  59  30 SW6       29.86S
FORT MORGAN    MOSUNNY   88  44  21 CALM      29.94R
$$

COZ086-089-092>099-051800-
...SOUTHEAST COLORADO...

CITY           SKY/WX    TMP DP  RH WIND       PRES   REMARKS
PUEBLO         MOSUNNY   92  49  22 SW9       29.94F
LA JUNTA       SUNNY     90  51  26 CALM      29.92F
LAMAR          SUNNY     91  58  32 S5        29.88F
SPRINGFIELD      N/A     87  60  40 S23G32    29.97S
$$



USA.gov is the U.S. government's official web portal to all federal, state and local government web resources and services.